2017-008BQ

Last updated on Wed Mar 01 2017 00:15:03 GMT+0000 (Coordinated Universal Time)

1 42010U 17008BQ 17059.15501323 .00001715 00000-0 77817-4 0 9993 2 42010 97.5096 120.7725 0006843 227.9497 132.1171 15.22184612 1188
UTC large
Height (km)
Speed (km/s)
/
Latitude / Longitude
Inclination (degrees)
Orbital Period (minutes)
Azimuth
Elevation
Range (km)
Doppler Factor

Next 0 passes for location: London (51.5072 / 0.1276)

Sorry there are no passes over London.